{"data":{"norad_id":61194,"intl_designator":"2024-169F","name":"JILIN-01 KUANFU 02B 6","alt_names":[],"object_type":"PAYLOAD","status":"ACTIVE","operator":null,"country":"PRC","launch_date":"2024-09-20","launch_site_code":"TAISC","launch_vehicle":null,"mission":null,"orbit_class":"UNKNOWN","rcs_meters":null,"size_class":null,"mass_kg":null,"dimensions":null,"purposes":[],"wikipedia_slug":null,"has_3d_model":false,"image_url":null,"decayed_at":null,"tle_current":{"epoch":"2026-09-22T21:10:52.568832Z","epoch_age_seconds":88877,"freshness":"FRESH","line1":"1 61194U 24169F   26265.88255288  .00002043  00000+0  13141-3 0  9991","line2":"2 61194  97.5528 353.9445 0015954 352.3608   7.7375 15.09427172110574","mean_motion":15.09427172,"eccentricity":0.0015954,"inclination_deg":97.5528,"raan_deg":353.9445,"arg_perigee_deg":352.3608,"mean_anomaly_deg":7.7375,"bstar":0.00013141,"rev_number":11057,"period_min":95.400429163601,"perigee_km":526.91529693308,"apogee_km":548.9831448467,"semimajor_km":6916.0862208899,"source":"CELESTRAK","updated_at":"2026-09-23T09:00:20.813690Z"}}}